Location: Keppel Henge
(44.7900°N, 80.9447°W)
Time: 16:45:03
(UTC-05:00)

Tiangong 1 - Pass Details

Date: 13 October 2017
Orbit: 275 x 301 km, 42.8° (Epoch: 15 December)

Event Time Altitude Azimuth Distance (km) Brightness Sun altitude
Rises 19:46:58 0° 273° (W) 2,086 6.9 -12.3°
Reaches altitude 10° 19:49:04 10° 264° (W) 1,238 5.1 -12.7°
Maximum altitude 19:51:39 35° 195° (SSW) 530 1.9 -13.1°
Enters shadow 19:53:01 21° 141° (SE) 788 2.3 -13.4°
